Temperature
23 22 21 20 20 19 19 19 19 19 18 18 18 18 17 17 17 17 17 17 17 17 17 17 17 17 17 17 17 17 17 17 17 17 17 17 17 17 17 17 17 17 17
23 22 21 21 20 20 19 19 19 19 18 18 18 18 18 17 17 17 17 17 17 17 17 17 17 17 17 17 17 17 17 17 17 17 17 18 18 17 17 17 17 17 16
24 23 22 21 20 20 20 19 19 19 19 18 18 18 18 18 17 17 17 17 17 17 17 17 17 17 17 17 17 17 17 17 17 17 17 18 18 17 17 17 17 16 16
24 23 22 21 21 20 20 20 20 20 19 19 18 18 18 18 18 17 17 17 17 17 17 17 17 17 17 17 17 17 17 17 17 17 17 17 17 17 17 17 16 16 16
25 24 23 22 21 21 20 20 20 20 20 19 19 18 18 18 18 18 18 17 17 17 17 17 17 17 17 17 17 17 17 17 17 17 17 17 17 17 17 17 16 16 16
25 24 23 22 22 21 20 20 20 20 20 20 19 19 18 18 18 18 18 18 17 17 17 17 17 17 17 17 17 17 17 17 17 17 17 17 17 17 17 16 16 16 16
25 24 23 22 22 21 21 20 20 20 20 20 19 19 19 18 18 18 18 18 17 17 17 17 17 17 17 17 17 17 17 17 17 17 17 17 17 17 17 16 16 16 15
25 24 23 23 22 22 21 21 20 20 20 20 20 19 19 18 18 18 18 18 17 17 17 17 17 17 17 17 17 17 16 16 16 16 16 16 16 16 16 16 16 16 15
26 25 24 23 23 22 21 21 21 21 20 20 20 19 19 19 18 18 18 18 18 17 17 17 17 17 17 17 17 16 16 16 16 16 16 16 16 16 16 16 16 16 15
26 25 24 23 23 22 22 21 21 21 20 20 20 19 19 19 19 18 18 18 18 18 17 17 17 17 17 16 16 16 16 16 16 16 16 16 16 15 15 15 15 15 15
26 25 24 23 23 22 22 21 21 21 20 20 20 19 19 19 18 18 18 18 18 17 17 17 17 17 16 16 16 16 16 16 16 15 15 15 15 15 15 15 15 15 15
26 25 24 23 23 22 22 21 21 21 20 20 20 20 19 19 18 18 18 18 18 17 17 17 17 16 16 16 16 16 15 15 15 15 15 15 15 15 15 15 14 14 14
26 25 24 23 22 22 22 21 21 21 21 20 20 20 19 19 19 18 18 18 17 17 17 17 17 16 16 16 16 16 15 15 15 15 15 15 14 14 14 14 14 14 14
25 24 24 23 22 22 22 22 21 21 21 20 20 20 19 19 19 18 18 18 17 17 17 17 16 16 16 16 15 15 15 15 15 15 14 14 14 14 14 14 14 14 14
25 24 23 23 22 22 22 22 22 21 21 21 20 20 19 19 19 18 18 18 17 17 17 16 16 16 16 15 15 15 15 14 14 14 14 14 14 14 14 14 13 13 13
24 23 23 23 22 22 22 22 22 21 21 21 20 20 20 19 19 18 18 18 17 17 17 16 16 16 15 15 15 15 14 14 14 14 14 14 14 14 13 13 13 13 13
23 23 22 22 22 22 22 22 22 21 21 21 20 20 20 19 19 18 18 17 17 17 16 16 16 15 15 15 15 15 14 14 14 13 13 13 13 13 13 13 13 13 12
23 22 22 22 22 22 22 22 22 21 21 21 20 20 20 19 18 18 17 17 17 16 16 16 15 15 15 15 15 14 14 13 13 13 13 13 13 12 12 12 12 12 12
23 22 22 22 22 22 21 21 21 21 21 20 20 20 20 19 18 18 17 17 16 16 16 15 15 15 15 14 14 14 13 13 13 13 13 12 12 12 12 12 12 12 12
22 22 21 21 21 21 21 21 21 21 20 20 20 19 19 18 18 17 17 16 16 16 15 15 15 14 14 14 14 14 13 13 12 12 12 12 12 12 12 11 11 11 11
21 21 21 21 20 20 21 21 20 20 20 19 19 19 18 18 17 17 16 16 16 15 15 15 15 14 14 14 14 13 13 12 12 12 12 12 12 12 11 11 11 11 11
20 20 20 20 20 20 20 20 19 19 19 18 18 18 18 17 17 16 16 16 15 15 15 14 14 14 14 13 13 13 13 12 12 12 12 11 11 11 11 11 11 11 11
20 19 19 19 19 19 19 19 19 19 18 18 18 17 17 16 16 16 15 15 15 14 14 14 14 13 13 13 13 12 12 12 12 11 11 11 11 11 11 11 11 10 10
19 19 19 18 18 18 19 19 18 18 18 17 17 17 16 16 16 15 15 14 14 14 14 14 13 13 13 12 12 12 12 12 11 11 11 11 11 11 11 10 10 10 10
18 18 18 18 18 17 18 18 17 17 17 17 17 16 16 15 15 15 15 14 14 14 13 13 13 13 13 12 12 12 12 12 11 11 11 11 11 11 11 11 10 10 10
17 17 17 17 17 17 17 17 17 17 17 16 16 16 15 15 15 14 14 14 14 13 13 13 13 13 13 13 12 12 12 11 11 11 11 11 11 11 11 11 10 10 10
Wind_Speed
7 7 7 6 6 6 5 5 4 3 3 2 2 2 3 2 2 2 1 2 2 2 3 2 2 3 2 2 3 2 3 3 2 2 2 2 2 1 1 1 1 1 1
8 8 7 7 7 7 6 6 5 4 4 3 2 1 1 1 1 1 1 2 2 2 3 2 3 2 3 3 3 3 3 3 3 2 2 2 2 2 2 2 1 1 1
9 10 9 9 8 7 7 5 5 5 4 4 3 2 2 2 2 2 1 1 2 2 2 2 3 2 3 3 3 4 5 4 3 4 3 2 1 1 2 2 1 1 1
10 10 10 10 9 8 7 7 6 6 5 5 4 3 2 2 1 1 0 1 1 1 2 2 2 3 3 3 4 4 4 4 4 3 4 4 2 2 2 2 2 2 1
11 10 10 10 9 9 8 7 7 6 6 5 4 4 3 2 1 1 1 1 1 1 1 2 2 2 3 3 4 3 4 4 4 4 3 3 3 5 4 2 2 1 1
11 10 10 10 9 9 8 8 7 7 6 6 5 4 3 2 1 1 1 1 1 1 1 2 2 2 2 2 3 3 4 4 4 5 4 4 3 4 3 3 3 2 0
12 11 11 11 10 10 9 8 8 7 7 6 5 4 3 3 2 2 1 2 1 1 1 1 2 2 2 2 3 3 3 3 4 4 4 4 4 3 3 3 3 2 1
12 12 12 12 11 11 10 10 9 8 7 6 5 4 4 3 2 2 2 1 1 1 1 1 1 2 2 2 2 3 2 2 3 3 3 3 3 3 3 3 3 2 2
12 13 12 12 12 11 11 11 10 9 8 7 6 5 4 3 2 2 2 2 1 1 1 1 1 2 2 2 2 1 2 1 2 2 2 2 2 2 2 3 3 3 2
12 12 12 12 11 11 10 10 10 9 8 7 6 5 4 4 3 2 1 1 1 1 1 1 1 1 1 1 1 1 0 0 1 1 1 2 2 2 2 2 2 3 3
12 12 11 11 11 10 10 10 10 9 8 7 6 5 5 4 3 2 2 1 1 1 1 1 0 1 1 0 0 0 0 0 0 1 0 1 1 1 1 1 1 1 2
11 11 11 11 11 11 10 10 10 9 8 8 7 6 5 4 4 3 2 2 2 1 1 1 1 0 0 0 1 0 0 0 0 0 1 1 0 0 1 0 1 1 2
11 11 11 11 11 11 10 10 10 9 9 8 7 6 6 5 4 3 2 2 2 2 1 1 1 1 1 1 1 1 0 0 0 0 0 1 1 1 0 0 1 2 2
11 11 11 10 10 10 11 10 10 9 9 8 8 7 5 4 4 3 3 2 2 2 2 2 1 1 1 1 1 1 1 1 1 0 1 1 1 1 0 1 1 2 3
11 11 11 11 11 11 11 10 10 10 9 9 8 7 6 5 4 4 3 3 3 3 2 2 2 1 1 1 1 2 2 2 1 1 1 2 4 5 4 2 1 2 2
9 10 11 11 11 12 11 11 10 10 9 9 8 7 7 6 5 4 4 4 3 3 2 2 2 2 2 4 3 1 2 2 2 2 2 3 4 6 7 8 7 5 2
8 8 10 11 11 11 11 12 11 10 10 9 8 8 7 7 6 5 5 4 3 3 3 2 2 2 3 3 2 1 1 2 2 3 2 3 5 4 5 6 6 6 6
7 8 8 9 10 11 11 11 11 11 10 9 8 8 8 7 6 5 5 4 3 3 3 2 2 2 3 3 2 1 3 3 3 3 3 4 4 3 3 4 5 4 4
5 6 7 8 9 11 12 12 11 11 10 10 9 8 8 7 7 6 5 4 4 3 3 3 2 2 3 2 2 3 4 4 4 3 3 3 4 4 2 3 4 4 4
3 4 6 7 8 9 11 12 11 11 10 10 9 9 8 7 6 6 5 4 4 4 4 3 3 3 3 3 2 3 3 4 3 4 4 4 3 3 1 2 3 3 3
3 5 6 7 8 9 10 11 11 10 9 9 8 8 8 8 7 6 5 5 5 4 4 4 3 3 3 4 2 1 2 3 3 3 3 4 5 4 1 1 2 1 1
4 5 6 7 7 9 10 10 9 8 8 9 8 8 7 7 7 7 6 5 5 5 4 4 3 3 3 3 3 2 1 2 2 2 2 4 6 4 2 1 2 1 4
3 5 6 6 7 8 9 9 8 8 9 9 8 7 7 6 6 6 6 5 4 4 4 4 4 3 3 4 5 4 2 1 1 2 5 5 5 5 4 4 3 4 3
3 5 6 6 6 7 7 7 8 9 9 9 8 7 7 6 5 5 5 5 4 4 4 4 4 3 3 3 4 5 5 5 4 3 5 6 6 4 2 4 5 4 2
3 4 5 6 6 6 6 7 8 9 9 8 7 7 7 6 6 5 3 3 3 2 3 3 4 4 4 3 2 3 3 3 3 3 4 4 4 4 4 4 3 3 3
3 4 5 5 5 6 6 6 7 8 8 7 7 6 6 6 6 5 4 4 2 4 2 2 0 2 3 6 4 2 1 2 3 4 4 4 4 4 4 4 3 4 3
Wind_Direction
185 181 184 190 186 182 184 189 193 184 202 203 209 200 191 192 179 186 175 202 226 222 234 259 223 245 240 237 230 225 211 214 197 229 231 208 191 194 204 224 210 176 193
185 182 184 185 187 183 186 187 189 189 198 188 207 217 220 206 198 217 178 228 239 249 230 241 252 232 232 232 232 227 245 234 214 239 256 235 185 171 178 172 178 196 146
193 186 188 188 187 186 188 187 186 187 192 194 198 194 191 204 197 196 199 225 242 258 281 266 268 260 243 230 241 235 233 241 235 234 253 262 248 180 157 142 132 110 85
193 189 187 189 188 186 183 185 184 184 184 193 205 209 210 213 214 235 171 184 209 269 271 269 261 260 259 246 250 241 247 244 247 237 245 264 280 241 206 174 148 134 96
188 187 187 186 187 184 179 179 180 180 181 187 192 208 218 225 214 191 151 233 194 254 279 276 267 266 268 266 271 272 264 254 255 255 251 243 231 237 238 226 193 175 119
182 182 181 180 183 181 180 176 174 179 180 185 192 201 207 222 244 249 255 242 228 226 271 278 274 271 285 286 276 272 265 269 268 267 261 254 248 238 239 230 216 211 172
179 179 178 180 182 182 181 179 175 178 180 182 189 194 203 206 215 245 248 283 295 280 304 291 286 294 293 285 277 266 272 267 263 264 269 265 261 255 242 227 222 218 227
178 178 178 179 182 182 182 182 179 179 180 182 185 190 201 211 210 228 271 276 298 323 334 307 294 289 290 286 276 269 263 263 267 271 281 281 272 257 242 229 218 214 222
178 179 177 179 181 183 184 184 180 179 181 183 182 185 191 204 206 212 234 254 270 279 288 296 290 285 282 287 269 281 285 278 273 273 263 270 272 265 255 241 232 230 227
177 177 176 179 179 181 182 183 181 179 180 182 187 180 182 187 199 219 230 280 293 296 285 297 288 271 264 260 266 252 305 287 309 312 323 294 289 276 251 241 235 239 233
176 173 174 175 174 177 178 179 178 177 178 180 181 181 179 180 187 196 213 216 249 262 268 279 280 278 264 222 217 260 181 185 16 354 19 349 334 306 267 249 220 213 179
173 170 169 170 173 175 174 172 174 177 179 176 176 176 175 177 180 178 194 180 194 204 184 175 145 101 55 129 178 194 121 102 67 15 13 347 340 302 285 247 179 170 170
173 169 168 171 174 174 172 171 174 174 173 170 170 167 170 171 175 172 176 167 171 173 164 149 150 128 113 125 136 141 126 120 63 358 353 338 328 300 355 213 160 168 163
176 175 173 174 174 172 171 171 170 169 167 166 165 164 164 165 164 159 159 164 161 155 151 144 160 148 139 146 144 140 138 133 109 60 30 11 347 337 343 138 142 153 145
179 181 179 175 173 171 170 170 169 168 165 163 162 159 157 154 152 151 154 154 150 148 150 159 147 143 147 113 127 152 151 147 129 104 85 70 59 44 29 38 104 143 154
185 183 182 178 175 173 171 169 171 169 166 165 160 155 152 150 153 155 155 152 149 149 151 150 140 125 91 56 24 341 139 133 128 121 115 111 100 89 75 59 56 51 103
195 189 188 184 180 177 173 171 169 167 165 164 160 157 155 156 159 158 151 149 146 141 148 151 147 127 85 70 62 349 138 126 110 106 102 92 95 105 100 98 103 80 59
203 195 191 184 181 176 172 168 165 165 164 163 161 160 158 157 157 155 151 149 145 139 142 145 141 134 110 91 115 203 153 126 112 108 107 106 106 99 101 111 104 99 91
211 197 191 184 175 173 169 166 166 167 169 168 167 164 161 157 157 156 155 153 151 146 148 135 132 135 119 109 167 230 155 137 126 120 113 119 121 82 52 123 120 114 119
196 187 176 166 167 170 168 168 171 172 175 172 170 166 161 158 159 157 155 155 156 155 151 134 135 133 120 114 158 248 169 145 144 137 134 109 107 98 49 138 133 135 128
176 169 165 163 167 168 169 174 175 177 174 169 167 163 161 160 158 156 156 154 153 149 145 135 136 136 127 133 140 277 193 161 155 144 144 124 116 118 116 248 149 145 212
168 165 166 162 162 166 170 172 172 165 160 161 162 161 161 162 157 155 154 152 152 154 157 156 157 153 151 130 140 158 265 323 149 150 136 120 128 140 158 170 120 214 245
165 166 160 153 154 163 167 164 156 154 155 156 157 156 156 158 157 158 156 159 169 177 176 178 178 168 157 143 139 151 161 322 170 120 82 114 151 173 172 166 196 221 226
153 155 154 155 154 155 157 154 154 158 156 155 154 155 158 160 159 162 167 177 183 192 193 191 187 171 166 166 167 169 170 175 183 173 155 171 188 204 174 177 198 216 221
140 148 154 158 157 153 150 152 156 158 156 155 156 161 165 162 162 164 164 192 185 204 212 204 191 183 186 161 136 195 186 186 172 184 192 192 184 193 195 197 200 215 213
124 138 147 149 148 144 145 150 155 158 157 158 164 171 168 165 174 168 153 63 76 93 87 35 246 160 122 140 154 176 174 154 176 216 213 211 211 214 213 211 208 214 217
Height
1549 1550 1551 1552 1553 1554 1554 1555 1555 1555 1555 1556 1556 1557 1557 1558 1558 1558 1558 1558 1558 1558 1559 1560 1560 1560 1561 1561 1562 1562 1563 1563 1564 1564 1564 1565 1565 1565 1565 1565 1566 1566 1566
1547 1548 1550 1551 1552 1553 1553 1554 1554 1555 1555 1555 1555 1556 1556 1557 1557 1557 1557 1557 1557 1558 1558 1558 1559 1559 1560 1560 1560 1561 1562 1562 1563 1563 1563 1563 1564 1563 1563 1563 1564 1564 1564
1544 1546 1548 1549 1551 1551 1552 1553 1553 1554 1554 1554 1555 1556 1555 1556 1557 1557 1556 1556 1557 1557 1556 1557 1557 1558 1558 1559 1559 1559 1560 1561 1561 1561 1562 1562 1561 1562 1562 1561 1562 1562 1562
1541 1544 1546 1547 1549 1550 1551 1551 1552 1552 1553 1553 1554 1555 1555 1556 1556 1556 1556 1556 1555 1555 1555 1556 1556 1556 1557 1557 1558 1558 1558 1559 1559 1560 1559 1560 1560 1560 1560 1561 1560 1560 1560
1538 1541 1544 1546 1547 1549 1550 1550 1551 1552 1552 1553 1553 1554 1555 1555 1556 1555 1555 1554 1555 1554 1554 1555 1555 1555 1555 1556 1556 1556 1556 1557 1557 1558 1558 1558 1557 1558 1558 1559 1559 1559 1559
1536 1539 1542 1544 1546 1548 1549 1550 1550 1551 1551 1552 1553 1553 1554 1554 1554 1554 1554 1554 1554 1554 1553 1553 1553 1553 1554 1554 1554 1554 1554 1554 1554 1555 1555 1555 1555 1555 1556 1556 1556 1557 1557
1533 1536 1539 1542 1544 1546 1547 1548 1549 1550 1551 1551 1552 1552 1553 1553 1553 1554 1554 1554 1554 1553 1553 1553 1552 1552 1552 1552 1552 1552 1552 1552 1552 1552 1553 1553 1553 1553 1553 1554 1554 1554 1555
1531 1534 1536 1539 1542 1544 1545 1547 1547 1549 1550 1551 1551 1552 1552 1553 1553 1553 1553 1553 1553 1552 1552 1551 1551 1551 1550 1550 1550 1550 1550 1550 1550 1550 1550 1550 1550 1550 1551 1551 1552 1552 1553
1528 1532 1534 1537 1540 1542 1543 1545 1546 1547 1549 1550 1551 1551 1551 1552 1552 1552 1552 1552 1552 1552 1551 1550 1550 1549 1549 1548 1548 1548 1548 1548 1548 1548 1548 1548 1548 1548 1548 1549 1550 1551 1550
1526 1530 1532 1535 1538 1540 1542 1543 1545 1546 1548 1549 1550 1551 1551 1551 1551 1551 1551 1551 1551 1550 1550 1549 1549 1548 1548 1547 1547 1547 1547 1546 1546 1546 1546 1546 1546 1546 1547 1547 1547 1548 1549
1524 1527 1530 1533 1536 1538 1539 1541 1543 1544 1546 1547 1548 1549 1549 1550 1550 1550 1550 1550 1550 1549 1549 1548 1548 1547 1547 1546 1546 1546 1546 1545 1545 1545 1544 1544 1544 1545 1545 1545 1545 1545 1546
1523 1526 1528 1531 1533 1536 1537 1539 1541 1543 1544 1545 1547 1547 1548 1548 1549 1549 1549 1549 1549 1548 1548 1547 1547 1546 1546 1545 1545 1545 1545 1544 1544 1544 1543 1543 1543 1543 1543 1543 1544 1544 1544
1521 1524 1527 1529 1531 1533 1535 1537 1539 1541 1543 1544 1545 1546 1547 1547 1547 1548 1548 1548 1547 1547 1547 1546 1546 1545 1545 1545 1544 1544 1544 1543 1543 1543 1542 1542 1542 1542 1542 1542 1542 1543 1544
1519 1522 1524 1527 1529 1531 1533 1535 1537 1539 1541 1542 1543 1544 1545 1546 1546 1547 1547 1546 1546 1546 1545 1545 1545 1545 1544 1544 1543 1543 1542 1542 1542 1541 1541 1541 1541 1541 1541 1541 1541 1542 1542
1517 1519 1522 1524 1526 1528 1530 1532 1535 1536 1538 1540 1541 1542 1544 1544 1545 1545 1545 1545 1545 1545 1544 1544 1544 1544 1543 1543 1542 1542 1542 1541 1541 1540 1540 1540 1540 1540 1540 1540 1540 1541 1541
1514 1517 1519 1521 1523 1525 1527 1530 1532 1534 1536 1538 1539 1540 1541 1542 1543 1543 1543 1544 1544 1544 1543 1543 1543 1542 1542 1542 1541 1541 1541 1540 1540 1540 1540 1539 1539 1539 1539 1539 1539 1540 1541
1512 1514 1515 1517 1519 1522 1524 1527 1529 1531 1533 1535 1537 1538 1539 1540 1541 1541 1542 1542 1542 1542 1542 1542 1542 1541 1540 1540 1540 1540 1539 1539 1539 1539 1539 1539 1539 1539 1539 1539 1539 1539 1539
1510 1511 1512 1514 1517 1519 1521 1524 1526 1528 1530 1532 1534 1535 1536 1537 1538 1539 1540 1540 1540 1541 1541 1540 1540 1539 1539 1538 1538 1538 1538 1538 1538 1538 1538 1538 1538 1538 1538 1539 1539 1539 1539
1507 1508 1510 1512 1514 1516 1518 1520 1523 1525 1527 1529 1531 1532 1533 1535 1536 1537 1538 1538 1539 1539 1539 1538 1538 1538 1537 1536 1535 1536 1537 1537 1537 1537 1537 1537 1537 1537 1538 1539 1539 1539 1539
1504 1505 1507 1509 1511 1513 1515 1517 1520 1522 1524 1526 1528 1530 1531 1532 1533 1534 1535 1536 1537 1537 1537 1536 1536 1536 1535 1534 1533 1533 1536 1536 1536 1536 1536 1536 1536 1537 1537 1538 1538 1539 1539
1502 1503 1504 1505 1507 1510 1512 1514 1517 1519 1521 1523 1525 1527 1528 1529 1530 1532 1533 1534 1534 1535 1535 1534 1534 1534 1534 1533 1533 1533 1534 1535 1535 1535 1536 1536 1535 1536 1536 1537 1538 1538 1538
1499 1500 1501 1502 1504 1507 1509 1512 1514 1516 1518 1520 1522 1524 1525 1527 1528 1529 1530 1531 1532 1533 1533 1533 1533 1533 1533 1533 1533 1532 1533 1533 1534 1535 1535 1535 1535 1535 1536 1536 1536 1537 1537
1497 1499 1500 1501 1503 1505 1507 1509 1511 1513 1515 1518 1519 1521 1523 1525 1526 1527 1528 1529 1530 1532 1532 1532 1532 1532 1532 1532 1532 1532 1532 1532 1533 1534 1534 1534 1535 1535 1535 1535 1536 1536 1537
1496 1497 1499 1501 1502 1503 1505 1507 1508 1510 1512 1514 1516 1518 1520 1522 1523 1525 1527 1528 1529 1530 1530 1531 1531 1530 1530 1531 1531 1531 1531 1532 1532 1533 1533 1534 1534 1534 1534 1534 1535 1535 1536
1495 1496 1497 1498 1500 1502 1503 1505 1506 1508 1510 1512 1513 1515 1517 1519 1521 1522 1523 1525 1526 1527 1528 1528 1529 1528 1528 1529 1529 1530 1530 1530 1531 1531 1532 1533 1533 1533 1533 1533 1533 1534 1533
1493 1494 1495 1497 1499 1500 1501 1503 1504 1506 1508 1509 1511 1513 1514 1516 1518 1520 1520 1520 1523 1524 1524 1525 1525 1525 1526 1525 1526 1527 1528 1528 1529 1530 1531 1531 1531 1531 1531 1531 1531 1531 1531